星链-5644 (STARLINK-5644 )

导读

STARLINK-5644是由美国太空探索技术公司(SpaceX)运营的星链互联网卫星,于2023年1月26日发射入轨,属于星链星座组网卫星。星链项目旨在通过近地轨道卫星群,为全球提供高速互联网接入服务,该卫星持续为全球偏远地区、海上及航空场景等提供网络连接支持。

基本信息
目录编号:
55369
目录名称:
STARLINK-5644
国际标识:
2023-013AQ
轨道中心:
EARTH
卫星名称:
星链-5644
卫星全名:
星链-5644 (STARLINK-5644 )
卫星状态:
在轨 (已飞行1236 天)
发射日期:
2023-01-26 UTC
国别 :
美国 (US)
星等 :
--
轨道信息
数据来源 国际轨道数据 AOE轨道数据
星历时间 2026-06-14T23:21:44+0800
11小时前
查看轨道信息
2026-06-15T00:00:00+0800
10小时前
查看轨道信息
半长轴 6861.194km 6861.185km
偏心率 0.0001769 0.0001905
轨道倾角 43.007° 43.003°
近地点辐角 270.465° 264.935°
升交点赤经 133.738° 133.591°
平近点角 89.600° 241.415°
近地点 481.843km 481.74km
远地点 484.271km 484.356km
周期 94.267分钟 94.267分钟
每日圈数 15.275776 15.275804
详细信息
固有亮度:
5
最大亮度:
2.5
卫星平台:
Starlink v1.5
覆盖范围:
全球
运营商:
太空探索技术公司
运营商所在国:
美国
制造商(研发单位):
太空探索技术公司
制造商所在国:
美国
使用方式:
暂无
卫星简介
星链(Starlink)计划是由太空探索技术公司(SpaceX)提出的一个巨型低轨卫星互联网星座项目,计划在2019年至2024年间在太空搭建由约1.2万颗卫星组成的“星链”网络,其中1584颗将部署在地球上空550千米处的近地轨道,并从2020年开始工作。该卫星仍在工作。
2D轨道图
3D轨道图
轨道高度分析图
轨道倾角分析图
轨道综合分析图
查看轨道综合分析图